Regional Weather Roundup
Issued by NWS Wakefield, VA

Home | Current Version | Previous Version | Text Only | Print | Product List | Glossary On
Versions: 1 2 3 4 5 6 7 8 9 10 11 12 13 14 15 16 17 18 19 20 21 22 23 24 25 26 27
000
ASUS41 KAKQ 232216
RWRAKQ

REGIONAL WEATHER ROUNDUP
NATIONAL WEATHER SERVICE WAKEFIELD VA
600 PM EDT FRI JUN 23 2017

Note: "fair" indicates few or no clouds below 12,000 feet with no
significant weather and/or obstructions to visibility. * = Denotes
station may not report precipitation (e.g., rain,snow,etc.),
thunder or fog.

VAZ042-051-052>054-056-232300-
NORTHERN VIRGINIA

CITY           SKY/WX    TMP DP  RH WIND       PRES   REMARKS
WASH NATIONAL  CLOUDY    86  76  71 SW15G25   29.71F HX  96
DULLES         PTSUNNY   84  69  60 SW16G24   29.71F
FORT BELVOIR   CLOUDY    85  74  71 S6        29.71F
QUANTICO       LGT RAIN  87  75  67 SW10G22   29.72F HX  96
FREDERICKSBRG* MOSUNNY   88  74  63 SW20      29.73S HX  97
STAFFORD*      MOSUNNY   85  74  70 SW10G20   29.77S
WARRENTON      MOSUNNY   88  71  56 S12G18    29.72F
CULPEPER*      CLOUDY    87  75  66 S10G17    29.73F HX  97
MANASSAS*      CLOUDY    86  75  69 SW13      29.72F HX  95
LEESBURG*      CLOUDY   N/A N/A N/A SW14G21   29.72S
WINCHESTER     MOSUNNY   82  68  61 S10       29.71S
FRONT ROYAL*   PTCLDY    84  70  61 S7G20     29.70F
LURAY*         PTCLDY    86  68  54 SW17G23   29.74F
$$

VAZ048-049-060>072-079>083-232300-
CENTRAL AND SOUTH CENTRAL VIRGINIA

CITY           SKY/WX    TMP DP  RH WIND       PRES   REMARKS
RICHMOND       MOSUNNY   88  74  63 S18       29.77F HX  96
CHESTERFIELD*  NOT AVBL
PETERSBURG*    MOSUNNY   87  69  54 SW7G16    29.80F
HANOVER        SUNNY     89  70  53 SW12G25   29.77F
TAPPAHANNOCK*  MOSUNNY   88  67  50 S12G18    29.77F
QUINTON*       FAIR      88  74  63 SW5       29.78F HX  97
CHARLOTTSVILLE MOSUNNY   85  73  67 SW12G20   29.75F
GORDONSVILLE*  PTCLDY    86  74  68 SW10G16   29.75S
ORANGE*        CLOUDY    86  73  66 S10G18    29.75S
LOUISA*        MOSUNNY   90  77  66 S10G17    29.75F HX 102
BUMPASS*       FAIR      87  75  68 SW9       29.76F HX  96
FARMVILLE*     MOSUNNY   89  67  48 SW9G20    29.78F
CREWE*         FAIR      88  66  47 SW8G21    29.80F
FORT PICKETT*  FAIR      88  66  47 SW15G24   29.81F
CHASE CITY*    FAIR      88  71  56 SW7       29.82F
CLARKSVILLE*   FAIR      88  70  55 SW15G25   29.83F
SOUTH HILL*    MOSUNNY   89  73  58 SW12G22   29.88F HX  96
LAWRENCEVILLE* FAIR      88  72  57 MISG      29.82F HX  95
EMPORIA*       MOSUNNY   88  72  58 S13G18    29.84F
$$

VAZ088>098-232300-
SOUTHEAST VIRGINIA

CITY           SKY/WX    TMP DP  RH WIND       PRES   REMARKS
NORFOLK        MOSUNNY   91  73  55 SW20G26   29.81F HX  99
VIRGINIA BEACH PTSUNNY   89  73  59 SW15      29.81F HX  97
NORFOLK NAVAL  MOSUNNY   89  73  59 SW10G18   29.82F HX  97
WEST POINT*    CLOUDY    89  71  56 SW12G20   29.79F HX  95
SALUDA*        FAIR      88  76  66 SW8G16    29.77F HX  98
NEWPORT NEWS   MOSUNNY   87  73  62 SW15      29.80F
LANGLEY AFB    MOSUNNY   88  74  62 SW17      29.80F HX  96
FORT EUSTIS    MOSUNNY   89  75  63 SW12      29.78F HX  98
WILLIAMSBURG*  MOSUNNY   91  75  59 SW8G16    29.80F HX 102
HR EXEC AP*    FAIR      88  73  62 SW12G24   29.79F HX  96
FRANKLIN*      SUNNY     88  73  62 SW13G20   29.83F HX  96
US460-WAKEFLD  MOSUNNY   89  74  60 SW9       29.81F HX  98
$$

VAZ020-022-025-037-045-232300-
WEST CENTRAL AND SOUTHWEST VIRGINIA

CITY           SKY/WX    TMP DP  RH WIND       PRES   REMARKS
STAUNTON*      PTSUNNY   82  69  64 SW16      29.80F
WAYNESBORO*    CLEAR     83  71  66 SW13G21   29.81F
HOT SPRINGS VA CLOUDY    73  55  53 W18G25    29.95S
LYNCHBURG      PTSUNNY   85  71  63 SW10      29.81F
DANVILLE       SUNNY     87  71  58 SW15G23   29.83F
SOUTH BOSTON*  FAIR      88  68  51 SW13G22   29.82F
MARTINSVILLE   PTSUNNY   83  69  61 SW6       29.86F
ROANOKE        PTSUNNY   85  72  65 SE8       29.82F
BLACKSBURG     CLOUDY    82  68  64 S7        29.89F
DUBLIN*        PTSUNNY   85  63  47 S13       29.87F
MARION*        SUNNY     84  60  44 SW7       29.91F
HILLSVILLE*    PTSUNNY   78  64  61 S10G21    29.91F
RICHLANDS*     FAIR      81  63  52 SW9G18    29.88F
WISE*          CLOUDY    79  63  57 S14G22    29.87F
ABINGDON*      SUNNY     86  61  42 W13G23    29.85F
$$

MDZ021>025-VAZ099-100-232300-
SOUTHERN MARYLAND AND THE DELMARVA PENINSULA

CITY           SKY/WX    TMP DP  RH WIND       PRES   REMARKS
PATUXENT RIVER PTSUNNY   88  73  61 SW15G22   29.73F HX  95
BAY BRIDGE APT CLOUDY    84  75  74 SW12G21   29.70F
LEONARDTOWN    SUNNY     86  72  62 SW9       29.75F
DOVER          PTSUNNY   84  77  79 S17       29.69F
GEORGETOWN     CLOUDY    86  74  67 SW14      29.73F
EASTON         PTSUNNY   86  73  66 SW10      29.76F
CAMBRIDGE      SUNNY     86  75  70 SW9       29.73F HX  95
SALISBURY      CLOUDY    87  77  72 S14       29.74F HX  99
OCEAN CITY     CLOUDY    81  74  79 SW10G18   29.76F
WALLOPS ISLAND MOSUNNY   88  74  63 SW16      29.77F HX  96
ACCOMACK*      MOSUNNY   89  74  60 SW15G25   29.78F HX  98
$$

NCZ012>017-030>032-232300-
NORTH CENTRAL AND EASTERN NORTH CAROLINA

CITY           SKY/WX    TMP DP  RH WIND       PRES   REMARKS
ROANOKE RAPIDS FAIR      88  72  58 SW16G24   29.84F
RALEIGH        PTSUNNY   90  70  51 SW18G24   29.86F HX  95
ELIZABETH CITY MOSUNNY   89  77  67 SW16G23   29.85F HX 101
AHOSKIE*         N/A     87  74  66 S7        29.85F HX  95
EDENTON*       MOSUNNY   91  75  60 SW10G17   29.87F HX 101
CURRITUCK*     MOSUNNY   88  74  63 SW9G20    29.86F HX  97
KILL DEVIL HLS MOSUNNY   87  75  67 S8        29.87F HX  97
MANTEO         MOSUNNY   85  77  76 SW20      29.89F HX  96
CAPE HATTERAS  SUNNY     83  75  77 SW16G26   29.94F
TARBORO*       NOT AVBL
GOLDSBORO      SUNNY     91  73  56 SW15G22   29.87F HX  99
WASHINGTON     SUNNY    N/A N/A N/A SW12      29.89F
GREENVILLE     SUNNY     90  72  55 SW15      29.90F HX  96
NEW BERN       MOSUNNY   87  77  72 S13       29.92F HX  99
WILMINGTON     MOSUNNY   86  75  69 S14       29.93F HX  95
$$

VAZ048-232300-
ELSEWHERE

CITY           SKY/WX    TMP DP  RH WIND       PRES   REMARKS
HARRISBURG PA  PTSUNNY   80  75  84 W3        29.63F
BALTIMORE      CLOUDY    84  74  71 SW15G24   29.68F
ANNAPOLIS      CLOUDY    85  77  77 SW10G20   29.70F HX  95
ANDREWS AFB    CLOUDY    84  74  71 SW21      29.72S
PHILADELPHIA   PTSUNNY   87  73  62 SW20G28   29.66F
HENDERSON NC   SUNNY     86  68  54 SW18G25   29.85F
GREENSBORO     MOSUNNY   87  69  54 SW16G23   29.86F
ROCKY MOUNT    MOSUNNY   88  74  63 S13G21    29.86F HX  96
$$

VAZ100-232300-
MARINE

STATION/POSITION TIME  TEMP    WIND        PRES    WAVE   SWELL
                       AIR SEA DIR/SP/G            HT/PER HT/PER
                 (UTC) (F)     (DEG/KT/KT) (MB)    (FT/S) (FT/S)
BRANDYWINE LGT   2148          220/ 17/ 20 1006.5F
CAPE MAY NJ      2148   77 71  170/  9/ 13 1006.3F
LEWES DE         2148   85 69  230/ 10/ 17 1006.5F
15NM E FENWICK I 2150   72 68  200/ 19/ 21 1007.7F   4/ 5   2/ 8
OCEAN-CITY-INLET 2148   69 69  210/ 16/ 18 1008.0F
WACHAPREAGUE VA  2148   89 83  210/ 13/ 18 1008.3F
THOMAS POINT MD  2200   83 78  210/ 19/ 20   N/A
GOOSES REEF MD   2200   85 79  260/ 14/ 19 1007.0    1/ 2
COVE POINT MD    2148   86     240/ 15/ 23 1007.3F
SOLOMONS ISLAND  2148   86 76  230/ 15/ 23   N/A
PINEY POINT MD   2142          240/  9/ 17   N/A
POTOMAC MD       2200   85 79  230/ 16/ 19 1006.2    2/ 3
CAMBRIDGE MD     2148                      1007.5F
LEWISETTA VA     2148   88 81  230/ 16/ 20 1007.2F
RAPPAHANNOCK LGT 2142          200/ 15/ 16 1009.3F
STINGRAY PT      2200   85 78  240/ 12/ 14 1009.3    1/ 2
YORK RVR RNG VA  2148   85     230/ 16/ 19 1009.1F
YORKTOWN VA      2148   87 77  210/ 10/ 14 1008.4F
JAMESTOWN VA     2200   88 83  210/ 12/ 17   N/A
DOMINION TERM VA 2148   86     230/ 14/ 17 1009.5F
KIPTOPEKE VA     2148      79  230/  9/ 11   N/A
CHES BAY BRIDGE  2148   87 75  250/ 18/ 22 1009.1F
CAPE HENRY VA    2148   89     210/ 10/ 16   N/A
WILLOUBY STN VA  2148   87     220/ 20/ 23 1009.1F
S CRANEY ISL VA  2148   89     230/ 10/ 17 1009.4F
CAPE HENRY BUOY  2200      74                N/A     2/ 9
1ST LANDING BUOY 2200   86 76              1009.0    2/ 3
CAPE CHARLES BUO 2151      66                N/A     2/ 8
64NM E OF VA BCH 2150   75 73  200/ 17/ 21 1011.5F   3/ 4   2/10
DUCK PIER NC     2148   86 64  200/ 18/ 22 1010.7F
44100 DUCK FRF   2105      69                N/A     2/ 8
OREGON INLET NC  2142   82 82  190/ 22/ 26 1012.6F
HATTERAS NC      2148   81 80  220/ 14/ 22 1013.5F
DIAMOND SHLS NC  2150   81 81  220/ 21/ 23 1013.8F   4/ 4   2/ 8
CAPE LOOKOUT NC  2200   81     210/ 15/ 21 1013.8F
$$




USA.gov is the U.S. government's official web portal to all federal, state and local government web resources and services.